Date,TemperatureHighF,TemperatureAvgF,TemperatureLowF,DewpointHighF,DewpointAvgF,DewpointLowF,HumidityHigh,HumidityAvg,HumidityLow,PressureMaxIn,PressureMinIn,WindSpeedMaxMPH,WindSpeedAvgMPH,GustSpeedMaxMPH,PrecipitationSumIn
2013-1-1,50.0,47.7,44.5,48.2,42.2,32.6,94,82,56,29.18,28.98,1,0,1,1.34
2013-1-2,50.0,44.6,39.1,48.6,41.2,35.8,95,88,77,29.18,28.95,6,1,6,0.06
2013-1-3,48.8,39.4,32.8,36.6,33.8,26.3,91,81,60,29.33,29.14,6,1,6,0.00
2013-1-4,56.7,37.8,25.6,34.2,23.5,17.1,91,62,25,29.39,29.30,5,1,5,0.00
2013-1-5,50.8,38.5,24.1,35.9,25.4,19.3,85,62,36,29.41,29.28,3,0,3,0.01
2013-1-6,51.7,42.6,35.3,39.8,35.7,30.9,85,77,61,29.32,29.16,6,1,6,0.00
2013-1-7,63.2,43.4,28.3,39.6,29.9,24.8,90,63,29,29.41,29.26,5,0,5,0.00
2013-1-8,53.6,44.1,33.8,39.5,34.1,26.3,80,68,57,29.45,29.34,2,0,2,0.00
2013-1-9,66.4,56.4,48.6,52.5,46.3,38.9,79,69,59,29.46,29.38,2,0,2,0.00
2013-1-10,70.2,60.7,54.0,57.2,53.2,48.0,92,77,59,29.46,29.29,4,0,4,0.00
2013-1-11,70.0,63.1,59.4,63.7,60.7,57.1,96,92,77,29.30,29.17,7,1,7,0.39
2013-1-12,74.5,63.6,56.5,64.1,58.7,54.9,96,85,63,29.22,29.12,4,0,5,0.00
2013-1-13,71.5,64.1,57.2,61.9,58.9,53.1,93,83,69,29.18,29.07,8,1,8,0.02
2013-1-14,65.7,60.6,51.1,63.5,58.5,49.4,94,92,85,29.17,29.08,6,1,6,0.98
2013-1-15,63.7,57.8,51.1,62.4,56.3,49.4,96,95,92,29.15,29.01,8,1,8,0.45
2013-1-16,64.1,59.8,54.7,62.6,58.1,53.3,96,94,91,29.04,28.95,4,0,5,0.62
2013-1-17,55.6,48.7,36.9,54.5,46.9,33.9,97,94,88,29.25,28.76,9,1,9,1.12
2013-1-18,63.9,42.8,29.2,40.5,30.3,24.0,94,67,27,29.50,29.25,4,0,4,0.01
2013-1-19,59.8,41.2,26.5,37.9,27.7,23.4,90,64,29,29.48,29.24,5,0,5,0.00
2013-1-20,65.7,46.0,29.9,38.6,32.0,25.7,88,62,34,29.25,29.13,5,1,6,0.00
2013-1-21,60.1,43.7,31.3,38.5,27.7,16.6,89,58,32,29.18,29.09,8,1,8,0.00
2013-1-22,47.9,36.4,28.4,17.1,13.5,11.1,50,40,24,29.32,29.16,6,1,6,0.00
2013-1-23,53.3,39.5,25.2,37.3,20.8,10.9,66,48,31,29.38,29.18,8,1,8,0.00
2013-1-24,56.2,46.8,30.4,39.7,27.1,14.5,78,50,22,29.40,29.13,10,2,10,0.01
2013-1-25,36.0,32.0,28.8,30.2,17.3,8.6,84,56,40,29.44,29.17,3,0,3,0.00
2013-1-26,62.3,44.0,34.2,37.5,31.5,23.8,94,67,24,29.31,29.14,5,1,5,0.01
2013-1-27,54.9,42.3,31.9,34.9,30.4,24.0,81,64,44,29.51,29.30,4,0,4,0.00
2013-1-28,53.5,44.8,39.1,43.6,35.8,30.7,86,71,65,29.46,29.31,2,0,2,0.00
2013-1-29,74.0,55.8,38.0,59.7,49.4,34.1,90,80,58,29.31,29.04,7,0,7,0.00
2013-1-30,66.6,59.9,43.2,63.6,56.5,36.9,94,88,80,29.04,28.60,12,3,12,1.68
2013-1-31,50.2,41.3,33.7,37.4,25.9,22.1,81,55,36,29.17,28.82,13,2,13,0.00
2013-2-1,45.5,37.5,24.7,29.2,16.0,4.5,68,43,23,29.38,29.12,8,1,8,0.00
2013-2-2,54.2,36.3,20.2,36.8,20.1,8.7,87,58,18,29.37,29.14,7,0,7,0.19
2013-2-3,57.2,43.8,34.2,38.7,31.2,25.1,92,65,32,29.14,29.01,9,1,9,0.00
2013-2-4,49.1,39.4,29.2,31.8,26.7,22.6,81,62,38,29.16,29.04,4,0,4,0.00
2013-2-5,57.2,45.5,29.7,45.7,36.8,24.3,85,72,56,29.08,29.00,6,0,6,0.00
2013-2-6,74.9,52.9,34.6,50.4,35.8,29.5,94,60,22,29.21,29.06,5,0,5,0.00
2013-2-7,48.4,44.6,39.2,43.4,37.5,29.8,92,77,51,29.19,28.95,4,0,4,0.33
2013-2-8,57.6,48.2,36.9,48.5,41.7,30.3,91,79,51,29.19,28.96,6,1,6,0.01
2013-2-9,69.5,46.2,27.7,40.1,28.9,21.9,89,58,18,29.32,29.17,4,0,4,0.00
2013-2-10,62.3,48.1,36.7,48.2,38.0,27.2,94,70,43,29.38,29.11,8,1,8,1.30
2013-2-11,55.8,50.7,47.9,54.0,48.9,45.9,96,93,91,29.17,29.07,4,0,4,0.42
2013-2-12,60.5,47.9,45.0,46.9,43.8,36.7,94,87,46,29.15,29.08,3,0,3,0.01
2013-2-16,44.8,35.0,28.4,16.4,13.7,10.9,60,42,29,29.14,28.98,10,2,10,0.00
2013-2-17,48.6,34.0,22.7,16.9,12.3,8.0,63,43,21,29.30,29.13,9,1,9,0.00
2013-2-18,60.5,42.2,23.0,32.2,22.1,14.1,79,49,25,29.38,29.18,8,1,8,0.00
2013-2-19,57.6,45.3,39.2,44.7,31.4,18.1,90,61,34,29.18,29.03,9,1,9,0.29
2013-2-20,58.9,41.6,27.2,20.8,15.4,9.6,59,36,17,29.20,29.12,7,1,7,0.00
2013-2-21,68.8,49.7,28.8,35.0,22.0,14.7,64,36,18,29.22,29.01,4,0,4,0.03
2013-2-22,49.0,40.8,39.2,39.5,38.0,33.9,94,90,56,29.22,29.08,4,0,4,1.51
2013-2-23,49.7,44.2,40.0,46.4,42.0,38.1,95,92,87,29.09,28.89,4,0,4,0.78
2013-2-24,70.2,52.6,38.9,48.9,38.4,30.1,95,64,28,29.06,28.94,4,0,4,0.00
2013-2-25,52.2,43.8,37.8,36.8,31.5,27.2,91,63,46,29.08,28.92,5,1,5,0.02
2013-2-26,46.8,39.7,34.9,43.9,36.9,32.8,94,90,73,28.92,28.62,5,1,5,1.38
2013-2-27,61.4,48.8,40.3,36.8,33.6,31.3,74,57,35,28.93,28.79,8,2,8,0.00
2013-2-28,49.1,41.3,34.9,35.4,29.3,24.1,76,63,49,29.01,28.87,8,1,8,0.00
2013-3-1,42.7,37.5,31.7,29.3,27.2,23.0,74,67,57,29.02,28.96,6,1,6,0.00
2013-3-2,44.8,36.9,32.9,31.5,27.3,23.0,84,69,51,29.04,28.95,7,2,7,0.00
2013-3-3,45.4,35.5,29.2,23.1,19.7,16.6,74,54,34,29.10,29.00,8,1,8,0.00
2013-3-4,63.5,43.7,25.2,28.7,22.3,16.7,72,47,22,29.20,29.05,5,0,5,0.00
2013-3-5,67.1,51.3,38.3,54.8,40.4,26.9,89,67,56,29.10,28.72,10,2,10,0.65
2013-3-6,39.8,35.9,31.5,27.2,24.7,18.5,75,64,56,29.19,28.90,9,2,11,0.00
2013-3-7,63.0,43.9,28.4,35.5,28.6,23.8,86,59,29,29.27,29.16,6,1,6,0.00
2013-3-8,71.1,47.7,27.2,32.8,26.4,21.5,85,49,19,29.34,29.22,5,0,5,0.00
2013-3-9,66.1,50.5,34.9,34.1,29.0,23.6,65,45,27,29.37,29.25,5,0,5,0.00
2013-3-10,71.6,58.5,46.3,45.2,36.1,31.1,64,45,25,29.27,29.13,8,1,8,0.00
2013-3-11,64.6,55.9,52.2,55.4,50.3,44.8,95,82,64,29.14,28.86,10,1,10,1.17
2013-3-12,61.9,49.7,38.3,51.8,37.4,30.8,94,66,37,29.12,28.86,7,2,7,0.04
2013-3-13,57.4,44.7,31.1,35.8,26.2,19.9,83,52,27,29.26,29.12,8,1,8,0.00
2013-3-14,59.6,42.6,27.2,25.2,18.0,12.6,65,40,20,29.38,29.24,7,1,7,0.00
2013-3-15,76.9,55.6,32.0,42.4,33.7,21.2,79,47,28,29.25,29.02,8,1,8,0.00
2013-3-16,80.3,65.8,52.9,44.9,40.5,33.5,64,42,19,29.04,28.92,11,2,11,0.00
2013-3-17,73.8,62.8,51.7,53.6,47.2,38.4,77,57,41,29.06,28.96,7,1,7,0.00
2013-3-18,59.4,50.4,43.6,55.1,46.1,41.4,93,85,66,29.07,28.87,8,0,8,0.43
2013-3-19,67.3,53.6,44.1,45.6,34.6,23.9,95,56,24,29.11,28.93,7,1,7,0.00
2013-3-20,61.7,49.1,39.1,28.3,21.2,14.6,58,35,18,29.16,28.93,8,1,8,0.00
2013-3-21,51.1,40.4,30.6,28.0,15.6,5.2,61,39,21,29.00,28.91,8,1,8,0.00
2013-3-22,50.9,42.1,31.0,32.0,23.6,13.2,58,48,36,29.09,28.99,4,0,4,0.00
2013-3-23,52.7,46.9,41.4,47.4,41.2,31.5,93,81,56,29.06,28.87,3,0,3,0.82
2013-3-24,48.8,46.8,43.6,45.6,44.1,33.1,95,90,67,28.87,28.58,10,1,10,1.32
2013-3-25,43.4,37.9,34.2,33.4,24.6,21.8,70,59,44,29.07,28.72,10,3,10,0.00
2013-3-26,43.0,36.1,30.6,28.1,24.6,22.2,81,64,48,29.29,29.04,8,2,8,0.00
2013-3-27,58.0,41.8,27.0,29.0,24.1,22.1,84,54,28,29.35,29.25,7,1,7,0.00
2013-3-28,65.2,46.1,27.2,34.1,25.2,18.9,82,49,23,29.36,29.24,8,1,8,0.00
2013-3-29,70.6,51.4,32.0,35.1,29.7,24.2,82,48,24,29.37,29.21,5,0,5,0.00
2013-3-30,76.1,60.1,47.7,53.2,41.3,32.9,88,52,31,29.23,29.07,7,0,7,0.38
2013-3-31,70.0,60.3,55.1,60.0,54.5,51.7,94,82,62,29.09,28.91,7,1,7,0.22
2013-4-1,75.1,63.8,53.5,55.2,46.0,35.8,91,58,26,29.07,28.91,7,1,7,0.01
2013-4-2,70.2,55.1,41.0,39.2,33.4,26.8,85,49,24,29.21,29.06,7,1,7,0.00
2013-4-3,63.0,52.2,41.9,41.6,31.4,25.3,83,47,30,29.24,29.12,4,0,4,0.10
2013-4-4,46.3,42.3,39.2,41.6,38.4,36.5,92,86,73,29.21,29.00,6,1,6,0.29
2013-4-5,74.3,52.7,38.2,50.1,39.9,31.9,94,67,23,29.10,28.97,4,0,4,0.06
2013-4-6,75.6,57.0,36.5,44.7,36.5,32.1,87,52,24,29.25,29.10,8,1,8,0.00
2013-4-7,76.3,60.7,43.4,50.2,43.0,35.0,78,54,35,29.26,29.12,8,1,8,0.00
2013-4-8,79.9,66.0,54.2,56.4,51.1,44.5,84,61,39,29.21,29.11,9,1,9,0.00
2013-4-9,83.9,68.7,52.9,61.2,53.9,48.2,88,62,37,29.25,29.13,6,1,6,0.00
2013-4-10,88.2,70.2,53.6,61.2,54.8,49.0,88,61,34,29.19,29.00,8,1,8,0.00
2013-4-11,81.7,69.4,59.0,66.4,59.3,51.3,92,71,54,29.01,28.74,10,2,10,1.18
2013-4-12,73.1,64.2,55.4,62.0,49.7,36.9,92,63,30,28.96,28.70,7,2,7,0.27
2013-4-13,81.0,63.2,44.3,43.8,38.2,32.4,79,44,19,29.08,28.96,5,1,5,0.00
2013-4-14,62.8,54.8,45.2,54.4,45.8,37.8,87,72,56,29.11,28.96,4,0,4,0.13
2013-4-15,80.3,65.3,56.2,60.0,56.0,52.4,91,74,47,29.20,28.98,4,0,4,0.00
2013-4-16,84.6,69.4,57.6,64.5,59.4,53.3,90,72,48,29.31,29.20,4,0,4,0.00
2013-4-17,86.9,72.3,61.4,64.7,60.4,56.5,86,68,45,29.28,29.14,7,1,7,0.00
2013-4-18,81.5,70.2,59.6,62.7,58.9,56.0,92,70,46,29.15,28.98,9,1,9,0.00
2013-4-19,69.7,59.2,45.7,65.3,54.7,39.0,91,85,77,29.05,28.85,9,2,9,0.51
2013-4-20,68.8,52.1,35.5,38.8,33.6,29.4,84,54,25,29.27,29.05,6,1,6,0.00
2013-4-21,72.4,55.5,39.4,42.6,38.1,32.9,84,56,32,29.38,29.26,6,0,6,0.00
2013-4-22,73.1,58.1,46.4,47.0,41.9,38.4,76,57,38,29.35,29.20,5,0,5,0.00
2013-4-23,76.9,59.9,42.8,49.5,42.5,34.8,76,55,36,29.28,29.13,5,0,5,0.00
2013-4-24,77.9,62.5,50.0,60.4,53.4,44.6,91,74,47,29.18,29.11,9,1,9,0.09
2013-4-25,76.3,59.6,46.1,55.2,42.7,32.9,90,59,24,29.33,29.15,6,1,6,0.00
2013-4-26,78.3,58.6,36.5,46.5,39.1,30.7,86,53,28,29.42,29.30,4,0,4,0.01
2013-4-27,69.3,60.7,53.8,56.2,51.4,43.9,90,72,52,29.39,29.22,6,0,6,0.05
2013-4-28,57.6,55.2,53.6,55.1,53.0,51.3,94,92,86,29.25,29.06,4,0,4,1.73
2013-4-29,75.4,61.6,54.5,62.0,55.7,52.6,95,83,52,29.09,28.98,4,0,4,0.01
2013-4-30,81.4,64.8,52.4,64.0,55.9,49.2,94,76,44,29.16,29.01,4,0,4,0.00
2013-5-1,72.0,63.6,59.4,57.9,55.6,53.4,91,76,57,29.25,29.15,6,1,6,0.00
2013-5-2,66.1,60.0,58.1,59.8,56.4,53.6,92,88,79,29.25,29.17,5,1,5,0.03
2013-5-3,61.7,58.9,56.9,57.1,55.4,52.7,92,88,76,29.19,29.03,6,1,6,0.05
2013-5-4,58.0,52.9,49.0,54.5,50.5,46.6,95,92,83,29.04,28.88,5,1,5,1.98
2013-5-5,66.4,56.9,49.9,60.4,53.8,47.3,95,90,74,28.89,28.79,5,0,5,1.84
2013-5-6,58.0,52.9,45.7,51.3,47.8,43.6,94,83,70,28.95,28.85,0,0,0,0.03
2013-5-7,70.9,59.3,50.0,56.0,50.5,47.7,93,75,50,29.02,28.90,0,0,0,0.04
2013-5-8,78.5,64.0,50.0,58.1,53.0,46.9,92,70,44,29.11,28.99,0,0,0,0.00
2013-5-9,84.4,68.9,52.9,62.4,55.0,49.8,91,65,37,29.17,29.08,0,0,0,0.00
2013-5-10,81.5,68.5,54.4,64.2,56.7,50.2,89,68,44,29.15,29.01,0,0,0,0.00
2013-5-11,76.7,67.1,59.8,66.3,60.6,54.8,91,80,66,29.05,28.93,0,0,0,0.20
2013-5-12,70.7,61.0,47.5,59.9,45.3,31.9,92,62,28,29.13,28.97,0,0,0,0.11
2013-5-13,71.1,55.7,39.1,42.2,35.7,31.8,83,52,26,29.26,29.13,0,0,0,0.00
2013-5-14,80.5,59.3,40.7,53.6,42.2,35.3,85,58,32,29.30,29.16,0,0,0,0.00
2013-5-15,89.8,72.9,59.8,59.1,54.2,51.2,79,55,30,29.21,29.07,0,0,0,0.00
2013-5-16,86.4,71.4,58.0,62.8,57.6,52.0,84,64,42,29.14,29.04,0,0,0,0.00
2013-5-17,84.4,70.8,56.2,64.9,56.7,50.7,86,63,35,29.16,29.07,0,0,0,0.00
2013-5-18,76.5,69.4,64.6,65.4,63.0,60.7,90,81,63,29.16,29.09,0,0,0,0.35
2013-5-19,67.7,66.5,62.6,64.5,63.6,59.9,93,91,88,29.11,29.04,0,0,0,2.43
2013-6-3,86.9,80.3,67.1,70.4,65.4,61.8,84,61,49,29.03,28.93,0,0,0,0.00
2013-6-4,90.9,76.5,62.3,69.2,64.5,59.0,90,69,46,29.08,28.99,0,0,0,0.00
2013-6-5,86.6,73.9,68.6,73.0,67.6,64.5,92,81,61,29.10,28.97,0,0,0,0.52
2013-6-6,76.7,70.3,65.5,70.7,66.6,63.1,94,88,80,29.00,28.83,0,0,0,0.09
2013-6-7,86.8,72.5,66.6,70.8,66.4,63.7,93,82,54,28.91,28.75,0,0,0,0.33
2013-6-8,85.9,74.3,65.2,68.8,65.4,62.5,93,76,52,29.14,28.91,0,0,0,0.00
2013-6-9,85.9,74.1,66.8,72.6,67.9,63.5,91,82,60,29.17,29.06,0,0,0,0.63
2013-6-10,79.2,71.5,65.5,70.2,67.2,62.2,93,87,73,29.12,29.00,0,0,0,0.33
2013-6-11,90.2,78.3,69.7,75.4,70.5,66.9,92,78,56,29.11,29.02,0,0,0,0.02
2013-6-12,95.6,81.6,68.4,76.5,71.3,65.2,92,73,49,29.12,29.03,0,0,0,0.00
2013-6-13,93.2,80.2,68.4,73.4,70.0,65.3,90,73,46,29.04,28.82,0,0,0,0.13
2013-6-14,88.0,75.9,64.8,68.3,62.9,57.0,92,68,39,29.07,28.90,0,0,0,0.01
2013-6-15,89.1,73.8,61.2,70.4,60.8,56.9,87,66,40,29.19,29.06,0,0,0,0.00
2013-6-16,90.9,74.8,60.8,70.5,64.6,56.2,89,73,45,29.21,29.08,0,0,0,0.33
2013-6-17,86.8,73.6,66.4,74.4,68.3,63.2,93,84,57,29.16,29.01,0,0,0,0.99
2013-6-18,85.0,72.8,67.3,74.9,68.5,64.5,92,87,65,29.03,28.91,0,0,0,0.38
2013-6-19,83.0,74.4,68.6,72.7,67.8,63.9,93,81,61,29.14,28.96,0,0,0,0.01
2013-6-20,86.0,73.8,63.7,69.9,64.9,60.8,92,75,51,29.25,29.14,0,0,0,0.00
2013-6-21,86.8,74.3,63.4,68.8,63.7,59.8,91,72,50,29.30,29.20,0,0,0,0.00
2013-6-22,87.7,74.5,63.0,68.0,63.3,59.1,90,70,46,29.28,29.15,0,0,0,0.00
2013-6-23,87.5,75.3,64.4,70.9,66.4,60.4,90,75,54,29.27,29.16,0,0,0,0.09
2013-6-24,88.9,76.5,67.5,74.3,68.9,64.4,91,79,55,29.29,29.17,0,0,0,0.00
2013-6-25,90.4,81.7,67.7,72.3,69.6,64.6,90,68,51,29.23,29.10,0,0,0,0.00
2013-6-26,90.0,79.7,69.3,74.4,70.3,65.6,90,74,52,29.14,29.01,0,0,0,0.00
2013-6-27,87.7,80.2,74.2,75.2,71.5,69.0,88,76,57,29.05,28.88,0,0,0,0.01
2013-6-28,94.7,81.3,70.9,74.1,69.7,66.0,92,70,44,28.93,28.72,0,0,0,0.01
2013-6-29,92.9,80.2,68.6,71.6,67.1,62.3,88,66,41,28.79,28.73,0,0,0,0.00
2013-6-30,89.6,75.6,67.3,72.4,66.8,63.3,91,75,46,28.87,28.77,0,0,0,0.04
2013-7-1,86.8,73.5,66.6,72.4,66.5,62.6,91,80,56,28.99,28.86,0,0,0,0.02
2013-7-2,89.1,76.8,68.2,70.1,66.7,64.5,90,73,47,29.15,28.98,0,0,0,0.00
2013-7-3,77.4,71.3,66.1,71.5,67.6,63.4,92,88,77,29.23,29.13,0,0,0,1.80
2013-7-4,78.5,70.4,66.1,73.8,67.8,63.4,93,91,85,29.25,29.16,0,0,0,0.79
2013-7-5,85.0,72.8,68.0,74.0,68.7,65.3,93,87,68,29.27,29.19,0,0,0,0.45
2013-7-6,86.8,74.7,67.7,75.4,69.0,64.7,93,83,60,29.23,29.13,0,0,0,0.42
2013-7-7,81.0,74.5,69.8,73.1,70.0,66.8,93,86,73,29.23,29.16,0,0,0,0.06
2013-7-8,92.0,78.6,70.2,75.6,70.7,67.4,92,78,52,29.26,29.16,0,0,0,0.05
2013-7-9,93.4,78.5,71.6,75.6,71.6,68.2,91,80,53,29.24,29.13,0,0,0,0.70
2013-7-10,91.1,77.8,71.3,79.6,71.5,67.2,93,82,56,29.17,29.02,0,0,0,0.13
2013-7-11,81.0,74.6,69.5,74.0,70.0,66.7,91,86,76,29.05,28.96,0,0,0,0.01
2013-12-1,53.3,53.3,53.3,39.8,39.8,39.6,60,60,60,29.10,29.10,0,0,0,0.00